Home   Weather   Gelendzhik   Past weeks

Flag for Russia Past Weather in Gelendzhik, Russia — Yesterday and Last 2 Weeks

Now
41 °F

Clear.


Feels Like: 35 °F
Forecast: 37 / 61 °F
Wind: 10 mph from Southeast

Location: Anapa / Vitiazevo

Current Time: Apr 25, 2017 at 11:49:11 pm

Latest Report: Apr 25, 2017 at 10:30 pm


Visibility: N/A

Pressure: 30.39 "Hg

Humidity: 93%

Dew Point: 39 °F

Location of GelendzhikLocation

Past Weather in Gelendzhik — Graph

°F

Gelendzhik Temperature Yesterday

Maximum temperature yesterday: 50 °F (at 2:30 pm)
Minimum temperature yesterday: 39 °F (at 11:00 pm)
Average temperature yesterday: 46 °F

High & Low Weather Summary for the Past Weeks

 TemperatureHumidityPressure
High72 °F (Apr 18, 12:30 pm)100% (Apr 10, 10:30 pm)30.42 "Hg (Apr 10, 10:30 pm)
Low36 °F (Apr 11, 4:30 am)30% (Apr 13, 4:30 pm)29.50 "Hg (Apr 23, 1:30 pm)
Average50 °F77%29.96 "Hg
* Reported Apr 10 10:00 pm — Apr 25 10:00 pm, Gelendzhik, Weather by CustomWeather, © 2017

Note: Actual official high and low records may vary slightly from our data, if they occured in-between our weather recording intervals... More about our weather records

Advertising

Gelendzhik Weather History for the Previous 24 Hours

Scroll right to see more
 ConditionsComfort  
Time TempWeatherWind HumidityBarometerVisibility
10:00 pm
Tue, Apr 25
39 °FClear.8 mph93%30.39 "HgN/A
9:30 pm41 °FClear.8 mph93%30.42 "HgN/A
9:00 pm43 °FClear.8 mph93%30.42 "HgN/A
8:30 pm43 °FClear.6 mph93%30.39 "HgN/A
8:00 pm45 °FClear.6 mph93%30.39 "HgN/A
7:30 pm46 °FClear.10 mph87%30.39 "Hg10 mi
7:00 pm48 °FScattered clouds.10 mph82%30.39 "HgN/A
6:30 pm50 °FScattered clouds.10 mph76%30.39 "HgN/A
5:30 pm50 °FPartly sunny.13 mph82%30.39 "HgN/A
5:00 pm52 °FPassing clouds.15 mph77%30.39 "HgN/A
4:30 pm52 °FSunny.15 mph77%30.39 "Hg10 mi
4:00 pm54 °FSunny.15 mph58%30.39 "Hg10 mi
3:30 pm54 °FSunny.13 mph58%30.39 "Hg10 mi
2:30 pm54 °FPassing clouds.15 mph67%30.39 "HgN/A
2:00 pm55 °FPassing clouds.17 mph55%30.39 "HgN/A
1:30 pm54 °FScattered clouds.15 mph58%30.39 "HgN/A
1:00 pm54 °FScattered clouds.15 mph72%30.39 "HgN/A
12:30 pm54 °FScattered clouds.15 mph67%30.39 "HgN/A
12:00 pm54 °FScattered clouds.15 mph67%30.39 "HgN/A
11:30 am54 °FScattered clouds.13 mph67%30.39 "HgN/A
11:00 am54 °FScattered clouds.13 mph67%30.36 "HgN/A
10:30 am52 °FScattered clouds.10 mph72%30.36 "HgN/A
10:00 am50 °FScattered clouds.13 mph76%30.36 "HgN/A
9:30 am50 °FPassing clouds.10 mph76%30.33 "HgN/A
9:00 am50 °FPassing clouds.10 mph76%30.33 "HgN/A
8:30 am48 °FPassing clouds.10 mph82%30.33 "HgN/A
8:00 am48 °FSunny.8 mph82%30.30 "HgN/A
7:30 am46 °FSunny.13 mph82%30.30 "HgN/A
6:30 am43 °FSunny.6 mph93%30.27 "HgN/A
5:30 am43 °FSunny.6 mph87%30.24 "HgN/A
4:30 am45 °FClear.8 mph81%30.21 "HgN/A
4:00 am45 °FClear.13 mph81%30.21 "HgN/A
3:30 am45 °FClear.10 mph81%30.21 "HgN/A
3:00 am45 °FClear.10 mph81%30.21 "HgN/A
2:30 am45 °FClear.10 mph81%30.18 "HgN/A
1:30 am45 °FClear.10 mph81%30.18 "HgN/A
1:00 am45 °FClear.10 mph81%30.18 "HgN/A
12:30 am43 °FClear.8 mph87%30.18 "HgN/A
12:00 am43 °FClear.6 mph87%30.18 "HgN/A
11:30 pm
Mon, Apr 24
39 °FClear.3 mph93%30.15 "HgN/A
11:00 pm39 °FClear.3 mph87%30.15 "HgN/A
Weather by CustomWeather, © 2017

See weather overviewHow to use our weather pages